RH
91 93 93 94 95 95 97 101 103 105 106 106 108 107 106 108 110 109 107 104 102 104 107 106 105 105 104 103 103 103 102 100 97 96 98 99 99 97 95 94 93 93 90 83 76 69 64 63 65 68 71 72 74 76 77 78 78 77 77 79 83 86 88
88 89 90 90 92 93 95 99 101 103 105 105 106 107 108 110 111 110 107 106 105 105 105 104 104 104 100 96 96 97 98 100 101 102 104 105 103 99 95 92 88 84 78 73 68 65 65 67 71 76 79 79 79 79 79 79 80 81 82 84 87 89 90
86 87 88 90 91 92 94 98 101 104 106 108 109 108 108 108 107 107 105 104 106 104 101 101 103 104 102 98 97 98 101 105 106 105 103 100 96 91 86 81 76 72 69 68 69 71 72 74 77 81 83 84 84 83 83 83 85 86 88 89 89 90 92
88 90 92 95 96 97 98 100 104 107 107 109 111 108 107 106 105 106 106 105 106 106 103 103 104 106 105 101 99 99 100 100 98 94 90 86 82 78 75 71 68 67 69 73 77 80 80 80 82 85 86 86 87 88 89 90 91 91 91 90 90 93 94
91 95 98 102 103 102 104 105 106 108 107 108 109 107 106 106 104 103 104 103 103 101 100 101 101 101 100 98 95 93 90 87 83 80 77 74 72 71 71 72 73 74 76 80 84 87 86 85 86 88 88 88 89 92 95 95 93 91 90 91 93 96 96
95 98 100 104 107 107 109 107 106 106 105 104 105 103 102 102 99 98 98 98 97 96 97 97 96 94 91 87 84 80 77 75 74 73 73 73 74 76 78 81 83 83 83 84 88 90 90 90 90 91 92 91 91 93 96 94 89 88 90 92 92 94 94
95 99 100 101 103 104 103 100 99 99 99 99 99 98 98 96 95 94 93 93 92 90 89 87 85 83 81 78 77 76 75 75 76 78 80 81 83 84 85 87 88 88 87 87 89 91 93 95 95 96 98 96 93 93 94 89 85 86 88 87 88 91 92
95 95 96 97 97 97 96 95 95 95 96 96 95 93 91 90 88 87 85 85 83 82 81 82 81 81 81 81 81 81 80 80 82 83 84 85 86 86 88 88 89 89 89 88 90 92 95 99 100 101 102 99 94 93 91 84 81 84 84 82 85 91 92
99 96 96 98 97 95 95 94 92 92 91 89 88 85 84 84 83 83 83 83 83 82 83 84 84 84 84 84 84 83 83 83 83 84 85 85 86 86 88 88 88 89 89 89 90 93 96 98 101 104 105 100 93 89 84 78 76 79 81 81 85 90 91
101 98 97 99 97 94 93 92 90 89 88 86 86 85 85 85 84 84 84 84 84 85 85 85 86 87 86 87 87 86 86 86 85 84 85 85 85 86 86 86 87 88 89 87 87 89 91 93 98 103 103 98 90 83 77 74 76 79 81 83 87 93 94
98 97 95 95 94 92 91 90 89 88 87 87 86 85 84 82 81 81 81 81 82 84 86 87 88 90 90 89 89 88 87 86 84 84 85 85 85 85 85 86 89 91 91 87 84 83 84 87 94 98 97 95 89 79 73 75 80 83 83 86 91 96 98
94 93 90 88 87 87 86 84 84 83 83 83 83 83 81 79 79 79 80 82 84 86 89 91 92 93 92 90 88 87 86 85 85 86 87 88 88 89 91 93 95 96 95 92 86 83 82 86 90 94 96 95 88 78 76 81 87 88 87 90 93 96 99
99 98 95 90 87 86 85 83 83 83 83 84 85 85 84 83 83 84 84 86 89 91 93 95 96 95 93 91 90 89 90 91 91 91 92 92 92 93 95 96 95 95 96 96 91 87 88 90 91 93 96 94 87 84 86 89 91 90 89 91 93 95 98
101 101 100 98 95 91 89 88 87 87 87 88 90 90 89 87 86 86 88 90 92 94 95 95 95 95 95 94 93 94 94 93 91 89 89 90 91 92 93 94 94 95 97 97 94 92 94 95 93 94 96 95 92 92 93 91 90 89 91 94 94 95 97
92 91 89 90 90 90 91 93 93 92 91 91 93 94 93 91 91 91 91 91 93 94 94 94 94 94 93 92 91 90 88 85 83 80 80 82 85 89 91 93 96 99 101 99 97 96 96 95 94 95 97 98 96 95 95 92 90 90 93 96 94 94 99
88 88 86 85 84 85 90 95 97 97 97 95 95 94 91 89 89 91 92 94 95 96 95 94 91 88 84 81 80 81 80 79 77 74 74 78 83 88 92 94 98 102 104 103 99 97 95 93 94 94 94 94 93 94 94 92 91 93 95 95 94 96 101
92 95 96 95 93 91 91 93 95 97 97 96 95 91 87 82 80 80 83 86 88 88 87 84 80 75 72 71 74 78 80 79 76 74 76 81 86 89 91 94 100 104 104 101 96 93 89 87 87 87 85 86 88 91 91 90 93 96 92 90 95 100 101
77 82 86 90 92 93 93 93 93 92 90 89 87 82 77 71 66 63 63 65 67 69 69 69 69 69 70 73 79 83 84 82 78 77 79 82 83 83 85 92 98 98 93 89 84 80 75 73 73 72 72 78 83 85 86 88 93 93 88 88 96 101 102
51 55 58 62 66 70 74 77 78 78 76 75 74 69 63 56 51 49 49 50 53 56 58 60 62 65 70 75 79 80 78 74 71 70 71 71 69 70 76 82 81 77 74 73 68 62 60 61 62 63 67 73 76 77 80 84 87 87 87 90 97 101 104
39 40 41 42 43 45 48 51 53 55 56 57 58 57 53 50 47 46 46 47 48 49 51 54 56 59 62 66 66 64 62 60 59 60 61 61 60 64 69 70 67 65 67 68 65 62 62 64 65 68 72 74 74 75 78 79 80 85 91 96 101 103 104
44 44 45 47 48 48 49 51 52 54 55 55 56 56 55 53 52 53 53 54 55 56 58 62 65 67 68 67 64 62 62 62 63 65 68 70 72 74 76 76 75 76 77 77 77 77 77 77 78 82 83 82 81 82 83 83 86 91 96 99 102 103 102
65 66 66 68 69 68 68 70 71 72 71 69 69 68 65 64 64 65 65 66 68 72 74 77 81 84 84 80 75 73 74 75 77 79 81 84 87 87 87 86 87 88 89 90 90 89 88 90 93 95 94 92 91 92 93 96 99 100 100 101 100 99 99
78 76 76 77 77 76 75 76 76 77 76 74 73 72 70 68 67 66 66 69 73 78 82 86 91 97 98 92 82 78 79 81 84 86 87 89 90 90 90 89 89 92 94 94 93 92 93 97 99 100 101 101 102 102 101 103 105 105 104 103 100 99 100
73 72 71 71 71 70 69 69 70 70 70 70 70 69 68 67 65 63 62 64 67 71 77 83 88 96 101 97 88 82 81 82 85 88 89 89 90 91 92 92 92 93 92 91 91 92 95 99 101 104 106 107 106 106 105 106 106 105 103 101 101 103 103
66 65 64 63 64 64 63 63 63 64 64 64 64 64 64 63 62 60 58 58 60 63 67 73 79 86 92 91 87 84 84 84 86 88 88 89 92 95 97 97 95 93 92 91 92 95 98 103 107 109 109 108 108 108 109 109 108 105 102 101 102 101 100
58 57 55 54 54 55 55 55 55 56 56 56 55 55 54 53 51 50 49 48 50 54 58 64 71 76 77 75 76 80 84 87 89 89 89 89 91 93 94 94 94 94 95 97 99 102 104 108 110 110 111 112 112 111 111 111 110 107 105 104 101 97 96
46 44 42 40 40 40 40 40 41 41 43 43 44 44 45 44 44 43 41 40 40 44 49 53 59 62 63 65 70 75 79 84 86 87 86 84 83 84 87 91 94 97 100 102 104 105 106 107 109 110 111 112 113 112 111 111 110 108 106 104 100 97 98
31 29 27 26 25 24 24 23 24 24 25 26 27 28 29 31 33 34 34 34 33 35 39 42 46 51 56 62 67 68 68 71 75 78 78 77 75 77 81 87 92 95 98 99 99 100 102 104 106 107 108 110 111 110 109 107 105 104 102 100 97 97 99
20 19 17 16 16 15 15 15 14 15 15 16 16 17 17 18 20 21 22 23 24 25 28 30 34 39 45 50 54 56 57 60 63 66 69 70 69 69 70 75 80 86 89 90 90 90 94 98 102 106 109 110 109 107 104 101 99 100 99 95 93 93 91
14 14 13 12 12 12 12 12 12 12 13 13 13 14 14 14 15 16 16 17 17 18 20 21 24 27 30 33 37 40 43 46 48 51 54 57 59 60 61 64 70 75 80 81 80 80 83 89 96 102 105 105 103 101 99 98 97 97 95 92 88 84 79
11 12 12 11 12 12 11 11 11 11 12 12 12 12 13 13 13 14 14 15 15 16 17 18 19 20 21 23 25 27 29 31 33 35 38 42 46 49 52 55 59 63 65 65 66 69 74 78 84 88 90 91 90 89 89 88 88 87 86 82 78 72 66
11 11 11 11 11 11 10 10 10 10 10 11 11 11 12 12 13 13 13 14 14 15 15 16 17 17 18 19 19 20 22 23 24 26 28 30 33 36 39 42 45 46 47 49 52 56 59 62 65 68 70 70 70 70 71 70 70 69 67 64 60 56 51
10 10 10 10 10 10 10 10 10 10 10 10 11 11 11 12 12 12 12 13 13 14 14 15 15 16 17 17 18 19 20 20 21 22 23 24 26 28 29 31 32 33 35 37 39 41 42 45 48 49 50 50 50 50 50 50 50 49 48 47 45 43 40
10 10 10 10 10 10 10 10 10 10 10 10 11 11 11 12 12 12 12 12 13 13 13 14 15 15 16 17 18 18 18 19 19 20 21 22 23 24 25 25 26 27 27 28 29 30 31 34 35 35 35 35 35 35 35 36 37 37 37 37 37 36 35
10 10 10 10 10 10 10 10 10 10 10 10 11 11 11 12 13 13 13 13 13 13 13 14 14 15 15 16 17 17 17 18 18 19 20 21 21 22 23 23 24 24 25 25 25 26 27 28 28 29 29 29 29 30 31 32 33 33 33 34 33 32 31
11 10 10 10 10 10 10 9 10 10 10 10 10 11 11 12 12 13 13 14 14 14 14 14 15 15 15 15 16 16 16 17 17 18 19 19 20 21 21 22 23 23 24 24 25 25 26 26 27 27 27 28 29 29 30 30 31 31 30 30 29 28 27
Wind_Speed
104 104 105 105 104 104 104 104 104 105 106 107 108 108 109 109 110 111 111 112 111 111 112 113 113 113 113 112 112 113 113 114 115 115 116 116 117 118 118 119 119 119 119 121 122 122 121 120 119 117 116 114 111 110 108 107 106 106 105 104 104 104 104
101 102 103 103 103 103 102 102 103 103 104 104 105 105 106 106 107 108 109 109 109 110 110 111 112 112 113 113 113 113 114 115 116 117 118 119 119 120 121 121 122 122 122 123 123 122 120 119 117 115 114 113 112 110 109 108 107 106 106 105 105 105 105
102 103 103 103 103 103 103 103 103 104 104 105 106 106 107 107 108 108 109 110 111 111 112 112 113 114 115 115 115 115 116 117 118 120 121 122 123 123 124 124 124 123 122 122 121 120 119 117 116 114 113 113 112 112 111 109 109 108 107 107 107 106 106
103 103 104 105 105 105 104 104 104 105 106 106 107 108 109 109 110 110 111 112 113 113 114 114 115 116 118 118 118 119 119 120 122 123 124 125 125 126 126 125 124 123 121 119 118 118 118 117 115 115 114 114 113 113 112 111 110 110 109 108 108 107 107
104 105 105 106 106 107 107 106 107 107 108 109 110 111 112 113 113 114 115 116 116 117 117 118 119 120 122 122 122 123 123 124 125 125 126 126 125 125 124 123 122 121 120 118 117 117 118 118 117 117 116 116 115 113 112 112 111 110 109 108 108 107 107
107 107 108 108 109 110 110 110 111 111 112 113 114 115 116 117 118 118 119 119 120 120 121 122 123 124 125 125 125 126 126 126 125 125 124 124 123 123 122 121 121 121 120 118 117 118 118 119 119 118 118 117 116 114 113 112 111 109 108 107 107 107 106
111 111 112 112 113 114 114 115 115 115 116 117 118 120 121 121 122 122 122 123 123 124 124 125 125 125 126 126 125 125 125 124 123 123 122 122 122 122 122 122 122 122 121 120 119 118 118 119 118 118 118 118 116 114 112 112 110 108 107 106 105 105 105
115 115 115 116 117 118 118 119 119 120 120 121 122 123 124 124 124 124 124 124 124 124 124 124 124 124 124 124 124 124 124 123 123 123 123 123 124 124 123 123 123 122 122 120 119 118 117 117 117 117 117 117 115 113 112 111 108 106 106 105 104 103 104
119 118 118 119 120 120 121 121 121 122 122 123 123 123 123 123 123 122 122 122 122 122 122 122 123 124 124 124 125 125 125 125 124 124 124 124 124 124 123 123 122 121 121 119 118 116 115 114 114 114 115 115 114 113 111 109 107 105 104 104 102 102 102
120 120 120 120 120 121 121 120 121 121 121 121 121 122 122 122 122 122 122 122 122 123 124 124 125 126 126 126 126 126 126 125 125 124 124 123 122 122 121 120 120 119 119 118 116 114 113 112 111 112 114 114 113 112 110 107 105 103 102 102 101 100 101
119 119 119 119 119 119 119 120 120 121 121 121 122 123 123 124 124 124 124 124 125 125 126 127 127 127 127 127 127 126 125 124 123 122 121 120 119 118 117 117 116 116 116 115 113 111 110 109 109 110 111 111 110 109 107 105 103 102 100 100 98 98 99
120 120 121 121 121 121 121 122 122 123 123 124 125 126 126 127 126 126 126 126 126 126 126 127 127 126 126 125 124 123 122 121 120 118 117 117 116 115 114 114 113 113 113 112 111 109 107 106 106 107 107 108 108 106 104 103 101 100 99 98 97 96 97
124 124 125 125 125 125 125 125 126 126 127 127 128 128 129 129 128 127 127 126 125 125 125 124 124 124 123 122 121 120 119 118 118 118 117 116 116 114 113 113 112 112 111 110 108 106 104 104 104 103 104 105 104 102 101 100 99 98 97 96 95 95 96
127 127 128 128 129 129 129 129 129 129 129 129 129 130 129 129 128 126 125 124 123 122 122 121 121 120 120 119 119 118 118 119 119 119 118 117 116 114 113 112 111 110 109 108 106 104 102 101 101 101 101 102 101 100 99 98 98 97 96 95 94 95 95
128 128 128 129 129 129 129 129 129 129 128 128 127 127 127 126 124 123 122 121 120 119 119 118 118 118 118 118 118 119 119 120 120 119 118 116 114 113 111 110 109 108 108 106 105 103 101 100 100 100 99 99 98 98 97 97 96 95 95 95 94 94 94
125 126 125 125 125 125 124 125 126 126 125 125 124 124 124 122 120 119 118 117 117 117 117 117 118 118 118 118 118 119 119 119 118 117 115 113 111 110 109 108 107 107 106 105 104 102 101 100 100 100 98 97 97 96 96 95 94 95 95 95 94 94 95
120 121 121 121 121 121 121 121 121 122 122 122 122 122 121 120 118 116 115 115 115 116 117 117 118 118 118 117 116 116 116 116 115 113 111 110 109 108 107 106 105 105 105 104 103 102 101 101 100 99 97 97 96 96 95 95 94 95 96 95 94 94 96
117 117 117 117 118 118 119 119 119 120 120 120 120 120 120 119 117 115 114 114 114 115 116 116 115 115 115 114 113 113 113 112 112 110 109 108 107 106 105 104 104 104 104 103 102 101 100 100 100 98 97 96 96 96 96 95 95 96 96 95 94 95 95
114 114 114 114 114 115 115 116 116 117 118 118 119 120 120 119 117 115 113 113 112 112 112 112 112 111 111 111 111 111 111 110 109 108 107 106 105 104 103 103 104 103 102 101 101 100 99 98 97 97 96 96 96 96 96 95 95 95 95 94 94 94 93
112 111 111 111 111 111 112 112 113 114 115 115 116 117 118 117 115 113 112 111 109 109 108 108 109 108 109 109 109 109 109 108 106 105 104 104 102 101 101 102 102 100 99 99 98 97 97 95 95 95 95 95 95 95 95 94 93 92 92 93 93 93 93
109 109 109 109 109 109 110 110 111 112 113 113 113 114 115 114 113 112 111 110 108 107 106 106 106 107 108 109 109 108 107 106 105 103 102 102 101 100 100 100 100 99 98 97 97 97 96 95 95 95 95 94 94 94 94 93 92 92 92 92 93 94 95
109 110 109 109 110 110 111 111 112 113 114 114 115 115 115 115 113 113 111 110 108 107 107 106 106 107 109 110 110 109 107 106 105 104 102 102 101 101 101 101 100 99 98 98 98 97 97 96 96 96 96 95 94 94 94 94 94 94 94 95 95 96 96
111 111 111 111 112 112 113 113 114 115 116 116 116 117 117 117 115 114 113 111 109 109 108 108 107 108 111 113 113 111 109 107 106 105 104 103 103 103 102 102 100 100 99 99 99 98 98 98 98 98 98 97 96 96 96 96 96 97 98 98 98 98 99
110 111 111 111 111 112 113 113 114 114 115 116 116 116 117 117 116 115 113 111 110 109 108 107 107 108 111 114 115 112 110 108 107 106 105 104 104 103 103 103 102 101 101 100 100 99 99 100 100 100 99 99 98 98 98 99 100 100 100 100 100 100 101
109 110 110 110 110 111 112 112 113 114 114 115 115 115 116 116 116 115 113 111 109 108 107 106 106 107 110 113 113 112 110 109 108 107 106 105 105 104 104 104 103 103 102 101 101 101 100 101 101 101 101 100 100 100 100 101 103 103 102 102 102 102 101
110 111 111 111 112 112 113 113 114 115 116 116 116 116 116 116 116 115 114 112 110 109 108 107 108 109 110 110 109 109 108 108 108 108 107 106 106 105 105 104 103 103 103 103 102 102 102 102 102 102 102 102 101 102 102 103 104 104 104 104 103 102 102
111 112 112 112 112 112 112 113 113 114 115 116 116 117 117 117 117 117 116 114 112 111 110 110 110 111 111 110 109 109 109 109 109 109 109 108 107 106 105 104 104 103 103 103 104 104 104 104 103 103 102 102 102 103 103 104 105 105 105 105 104 104 104
109 109 109 109 108 108 108 108 109 109 110 111 111 112 113 113 114 114 115 114 113 112 112 111 111 111 111 111 112 112 111 111 111 111 111 110 109 108 107 106 105 105 105 106 106 106 105 105 105 104 104 104 104 104 105 106 106 106 106 106 106 105 106
105 105 104 104 103 103 103 103 102 102 103 104 104 105 105 106 107 108 109 110 110 110 109 109 110 110 110 111 112 112 112 112 112 112 112 112 112 111 109 108 107 107 108 108 108 107 107 106 106 106 106 107 107 107 108 108 108 108 108 108 107 107 107
100 100 100 99 99 99 98 98 97 97 97 97 98 99 99 100 101 101 102 103 104 104 104 105 106 106 107 108 109 110 110 111 111 111 111 112 112 111 110 109 109 109 110 110 110 109 108 108 108 108 109 109 109 109 109 109 109 109 110 110 109 108 107
97 96 96 95 95 95 95 94 93 93 92 92 93 94 94 95 96 96 97 98 98 98 98 99 101 102 102 103 104 105 106 108 108 109 109 109 110 110 110 110 110 110 110 110 110 109 109 109 109 109 110 110 110 109 109 109 109 110 110 110 109 108 107
94 93 93 92 92 92 91 91 90 89 88 88 89 90 90 90 91 92 92 93 93 94 94 95 96 97 98 98 99 100 101 102 103 104 105 105 106 107 107 108 109 109 109 109 109 109 109 109 109 109 109 109 108 108 107 108 108 108 108 108 107 106 105
91 90 89 88 88 88 87 87 87 86 85 84 85 86 86 87 87 88 88 89 89 90 90 91 92 92 93 94 94 95 96 97 98 98 99 101 102 103 104 104 105 106 106 106 106 107 107 107 107 107 107 106 106 105 105 104 104 105 105 104 104 103 102
88 86 85 84 84 84 84 83 83 83 82 81 82 82 82 83 84 84 85 85 86 86 87 87 87 88 89 89 90 91 91 92 93 94 94 95 97 98 99 100 101 101 102 102 103 103 103 103 104 104 103 103 102 101 100 100 100 100 100 100 100 99 99
86 84 81 80 80 81 80 79 79 79 79 78 78 78 79 79 80 81 82 82 82 83 83 84 84 84 85 85 85 86 87 88 88 89 90 91 92 93 94 95 96 97 98 98 98 98 99 99 99 99 99 98 97 97 96 96 96 97 97 97 96 96 95
83 81 79 77 76 77 76 76 75 75 75 75 75 75 75 76 77 77 78 79 80 80 81 81 81 81 81 81 81 82 83 83 84 85 86 87 88 89 90 91 92 93 93 94 94 94 95 95 95 95 94 94 93 93 93 93 94 94 94 94 93 92 91
Wind_Direction
276 276 276 276 276 276 276 276 276 276 276 275 275 275 275 275 276 276 276 276 276 277 277 277 278 278 278 279 279 279 280 280 281 281 281 282 282 282 283 283 283 284 284 285 285 286 286 287 287 287 287 287 287 287 287 287 287 287 287 287 287 287 287
276 276 276 276 277 277 277 277 277 277 276 276 276 276 276 276 276 276 276 276 277 277 277 277 278 278 278 279 279 279 279 280 280 281 281 281 281 282 282 283 283 284 284 285 285 286 286 286 286 286 286 287 287 287 287 286 286 286 286 286 286 286 286
277 277 277 277 277 277 277 277 277 277 277 277 277 277 276 276 276 276 276 277 277 277 277 277 278 278 278 278 279 279 279 279 280 280 280 280 281 281 282 282 283 283 284 284 285 285 285 285 285 286 286 286 286 286 286 286 286 286 286 286 286 286 286
277 277 277 277 277 277 277 277 277 277 276 276 276 276 276 276 276 276 276 276 276 277 277 277 277 278 278 278 278 279 279 279 279 279 280 280 280 281 281 282 282 283 283 283 284 284 285 285 285 285 285 285 285 285 286 286 286 285 285 286 286 286 285
277 277 277 277 277 276 276 276 276 276 276 276 276 276 276 276 276 276 276 276 276 277 277 277 277 278 278 278 278 278 279 279 279 279 279 280 280 280 281 281 282 282 282 283 283 284 284 285 285 285 285 284 285 285 285 285 285 285 285 285 286 285 285
276 276 276 276 276 276 275 275 275 275 275 275 275 275 276 276 276 276 276 276 277 277 277 277 277 278 278 278 278 278 278 279 279 279 279 280 280 280 281 281 281 282 282 283 283 283 284 284 284 284 284 284 284 284 284 284 284 284 285 285 285 284 284
276 275 275 275 275 275 275 275 275 275 275 275 276 276 276 276 276 276 276 277 277 277 277 277 277 278 278 278 278 278 279 279 279 279 280 280 280 280 281 281 281 282 282 282 282 282 283 283 283 284 284 284 283 284 283 283 284 284 284 284 284 284 284
276 275 275 275 275 275 275 275 276 276 276 276 276 276 276 276 276 276 277 277 277 277 277 277 277 278 278 278 278 279 279 279 279 279 280 280 280 280 281 281 281 281 281 281 282 282 282 282 283 283 283 283 283 283 283 283 284 284 284 284 283 283 283
277 276 276 276 276 276 276 276 276 276 276 276 276 276 276 276 276 277 277 277 277 277 277 278 278 278 278 278 279 279 279 279 279 280 280 280 280 280 280 281 281 281 281 281 281 281 281 282 282 282 282 282 282 282 283 283 283 284 283 283 283 283 283
277 277 277 277 276 276 276 277 277 276 276 276 276 276 276 277 277 277 277 277 278 278 278 278 279 279 279 279 279 279 279 279 279 280 280 280 280 280 280 280 280 281 281 281 281 281 281 281 281 281 281 281 282 282 283 283 283 283 283 283 283 283 283
277 276 276 276 276 276 276 276 276 276 276 276 276 276 276 277 277 277 277 277 278 278 278 279 279 279 279 279 279 279 279 279 279 279 279 279 280 280 280 280 280 280 280 280 280 280 280 280 280 280 280 281 281 282 282 283 282 282 282 282 282 282 282
277 277 276 276 276 276 276 276 276 276 276 276 276 277 277 277 277 277 277 277 278 278 278 278 278 279 279 279 279 279 279 279 279 279 279 279 279 279 280 280 280 280 280 280 280 280 280 280 279 279 280 280 280 281 282 282 281 281 281 281 281 282 282
277 277 277 277 277 277 276 276 276 276 276 276 277 277 277 277 277 277 277 277 278 278 278 278 278 278 278 278 278 279 279 279 279 279 279 279 279 279 280 280 280 280 280 280 280 280 279 279 279 279 279 279 280 280 281 281 281 281 281 281 281 281 281
277 277 277 277 277 277 277 277 277 276 276 276 276 276 277 277 277 277 277 277 277 277 277 277 277 277 277 278 278 278 278 279 279 279 279 279 279 279 280 280 280 280 280 279 279 279 279 279 279 278 279 279 280 280 280 280 280 280 281 281 281 281 281
276 276 276 276 276 276 276 277 277 277 276 276 276 276 276 276 276 276 277 277 277 276 276 276 276 277 277 277 278 278 278 278 278 278 278 278 279 279 279 280 280 279 279 279 279 279 279 278 278 278 278 279 279 280 280 280 280 281 281 280 280 281 281
276 276 276 276 276 276 276 276 276 277 277 276 276 276 276 275 275 275 276 276 276 276 276 276 276 277 277 277 278 278 278 278 278 277 278 278 278 278 279 279 279 278 278 278 278 278 278 278 278 278 278 279 279 279 279 280 280 280 280 280 280 281 281
276 276 276 277 277 277 276 276 276 276 276 276 276 276 276 275 275 275 275 275 275 276 276 276 276 277 277 277 277 277 277 277 277 277 277 277 278 278 278 278 278 278 277 278 278 278 278 278 278 278 278 279 279 279 279 279 279 279 279 280 281 281 281
276 276 276 276 276 276 276 276 276 276 276 276 276 276 276 276 276 276 275 275 275 276 276 276 276 276 277 277 277 276 276 276 276 277 277 277 277 277 277 277 277 277 277 277 277 277 278 278 278 278 279 278 279 279 279 279 279 279 279 280 280 280 281
277 276 276 276 276 276 276 276 276 276 276 276 276 276 276 276 276 276 276 276 276 276 276 276 276 276 276 276 276 275 275 276 276 276 277 277 277 277 277 276 276 276 276 277 277 277 278 278 278 278 278 278 278 278 278 278 278 279 279 280 280 280 280
279 278 278 278 278 277 277 277 276 276 276 276 276 276 276 276 276 276 276 276 276 276 276 276 276 276 276 275 275 275 275 275 276 276 276 276 276 276 276 275 275 276 276 277 277 278 278 278 278 278 278 278 278 278 278 278 278 279 279 279 279 280 280
280 279 279 279 279 278 278 277 277 276 276 276 275 275 275 275 275 276 275 275 275 275 275 275 275 275 275 274 274 274 275 275 275 275 275 275 276 275 275 275 276 276 276 277 277 277 278 278 278 278 278 278 278 278 279 279 279 279 279 279 279 279 280
280 280 279 279 278 278 277 277 276 276 276 276 275 275 275 275 275 275 275 275 274 274 274 274 274 274 274 274 274 274 274 274 274 274 274 275 275 275 275 275 275 276 276 276 277 277 277 277 277 277 277 278 278 278 279 279 279 279 279 279 279 279 280
279 278 278 277 277 276 276 276 275 275 275 275 275 275 275 275 275 275 274 274 273 273 273 273 273 273 273 273 274 274 274 274 274 274 274 274 274 274 275 275 275 275 275 276 276 276 276 277 277 277 277 278 278 278 278 278 279 278 278 279 279 280 280
277 276 276 276 275 275 275 275 275 275 275 275 275 274 275 275 275 275 274 274 273 272 272 272 271 271 271 272 273 273 274 274 274 274 274 274 274 274 275 275 275 275 275 275 275 276 276 276 277 277 277 278 278 278 278 278 278 278 278 278 279 279 280
277 276 276 276 276 276 276 275 275 275 275 275 275 274 274 274 275 275 274 274 274 273 272 272 271 270 270 270 271 272 273 274 274 274 274 273 273 273 273 274 274 274 275 275 275 276 276 276 276 277 277 277 277 278 278 278 278 278 278 279 279 279 280
277 277 277 277 277 276 276 276 276 275 275 275 275 275 275 275 275 275 275 274 274 274 273 272 272 271 270 271 271 272 273 273 273 273 273 273 272 272 272 273 273 274 274 275 275 275 275 275 275 275 276 276 277 277 277 277 278 278 279 279 280 281 281
278 278 277 277 277 276 276 275 274 274 274 274 274 274 273 274 274 274 274 274 274 273 273 272 271 271 271 272 272 272 272 272 272 272 272 272 272 272 272 273 273 273 273 274 274 274 274 274 274 275 275 276 276 276 277 277 278 278 279 280 281 282 282
278 278 278 277 277 276 275 275 274 274 273 273 272 272 272 272 272 272 272 272 272 272 272 271 271 271 271 271 271 271 271 271 271 271 271 272 272 272 272 272 272 272 272 272 273 273 273 274 274 275 275 275 276 276 276 277 278 278 279 280 281 282 282
279 279 279 278 278 277 276 276 275 274 274 273 273 272 271 271 270 270 270 270 270 271 270 270 270 269 269 269 269 269 269 269 269 269 270 270 271 271 271 271 271 271 272 272 272 272 273 273 274 274 275 275 275 276 276 277 278 279 280 280 281 281 282
281 280 280 279 279 278 278 277 276 275 275 274 273 273 272 271 271 270 270 270 270 270 269 269 269 268 268 267 267 268 268 268 268 268 268 269 269 270 271 271 271 271 271 271 271 272 272 273 273 273 273 274 274 275 276 277 278 279 279 280 280 281 282
282 281 281 280 280 279 278 278 277 276 275 274 274 273 272 272 271 270 270 270 269 269 269 268 268 267 267 267 267 267 267 267 267 268 268 268 269 269 270 270 270 270 270 270 271 272 272 272 272 272 273 273 274 275 276 276 277 278 278 279 280 280 281
282 282 281 280 280 279 279 278 277 277 276 275 274 273 272 272 271 270 270 270 269 269 268 268 267 267 267 267 267 266 266 266 267 267 267 268 268 268 268 269 269 269 270 270 271 271 271 272 272 272 273 273 274 274 275 276 276 277 277 278 279 279 280
282 282 281 280 280 279 278 278 277 277 276 275 274 273 272 272 271 271 270 270 269 269 268 268 268 267 267 267 267 267 266 266 266 267 267 267 267 267 268 268 268 269 269 270 270 271 271 271 272 272 273 273 274 274 275 275 276 276 277 277 278 278 279
283 282 281 280 280 279 278 278 277 277 276 275 273 273 272 271 271 270 270 270 269 269 269 268 268 268 267 267 267 267 266 266 266 266 266 266 267 267 267 267 268 268 269 269 270 270 271 271 272 272 273 273 274 274 275 275 276 276 276 277 277 277 278
283 283 282 281 280 279 278 278 277 276 275 274 273 272 272 271 270 270 270 270 269 269 269 268 268 268 267 267 267 267 267 267 267 267 266 266 266 267 267 267 268 268 269 269 270 270 271 271 272 272 273 273 274 275 275 275 275 275 275 276 276 276 277
284 283 282 281 280 279 279 278 277 276 275 275 274 273 272 271 270 270 269 269 269 268 268 268 268 268 268 267 267 267 267 267 267 267 267 267 267 267 267 267 268 268 269 269 270 270 270 271 271 272 273 273 274 274 274 274 274 275 275 275 276 276 277